[[{"header":{"parameterUnit":"m.s-1","parameterCategory":1,"la1":30.2991,"la2":30.254,"lo1":-89.0895,"lo2":-89.0444,"dy":0.0017,"dx":0.0017,"nx":28,"ny":28,"refTime":"2024-03-06T03:00:00:Z","depth":0,"parameterNumber":2,"parameterNumberName":"U-component_of_WINDS"},"data":[0,0,0,0,0,0,0,0,0,0,0,0,0,0,0,0,0,0,0,0,0,0,0,0,0,0,0,0,0,0,0,0,0,0,0,0,0,0,0,0,0,0,0,0,0,0,0,0,0,0,0,0,0,0,0,0,0,0,-2.6901,-2.6902,0,-2.6913,-2.6913,-2.6913,-2.6853,-2.6852,-2.685,-2.6848,-2.6859,-2.686,-2.6862,0,0,0,0,0,0,0,0,0,0,0,0,0,-2.6828,-2.6829,-2.6901,-2.6902,-2.6902,-2.6913,-2.6913,-2.6913,-2.6854,-2.6852,-2.6849,-2.6848,-2.6858,-2.686,-2.6862,0,0,0,0,0,0,0,0,0,0,0,0,0,-2.6851,-2.683,-2.6901,-2.6873,-2.6871,-2.6913,-2.6913,-2.6913,-2.6854,-2.6851,-2.6849,-2.6847,-2.6857,-2.686,-2.6863,-2.6931,0,0,-2.6871,-2.6873,0,0,0,0,0,0,0,0,-2.685,-2.6854,-2.6877,-2.6875,-2.6873,-2.6879,-2.6891,-2.6919,-2.6855,-2.686,-2.6848,-2.6845,-2.6867,-2.6869,-2.6877,-2.6932,-2.6932,-2.6872,-2.6873,-2.6875,-2.6875,0,0,0,0,0,0,0,-2.6849,-2.6853,-2.6906,-2.6878,-2.6875,-2.686,-2.6861,-2.6896,-2.6878,-2.686,-2.6855,-2.6858,-2.6866,-2.6874,-2.6877,-2.6933,-2.6872,-2.6874,-2.6876,-2.6877,-2.7045,-2.7048,0,0,0,0,0,0,-2.6851,-2.6852,-2.6905,-2.6906,-2.6855,-2.6864,-2.6864,-2.688,-2.6878,-2.6875,-2.686,-2.6855,-2.6871,-2.6874,-2.6877,-2.6957,-2.6874,-2.6877,-2.6879,-2.7042,-2.7046,-2.7049,0,0,0,0,0,0,-2.6849,-2.6856,-2.6905,-2.6878,-2.6883,-2.6868,-2.6885,-2.6881,-2.689,-2.6878,-2.6874,-2.6872,-2.6869,-2.6873,-2.6919,-2.6957,-2.6878,-2.6881,-2.7039,-2.7043,-2.7047,-2.7118,0,0,0,0,0,0,-2.6848,-2.6856,-2.6882,-2.6879,-2.6885,-2.6947,-2.6888,-2.6883,-2.6895,-2.6889,-2.6888,-2.6886,-2.6867,-2.6915,-2.6921,-2.6959,-2.6883,-2.7035,-2.7041,-2.7046,-2.7112,-2.7124,-2.7134,0,0,0,0,0,-2.6845,-2.6901,-2.6883,-2.689,-2.6917,-2.6949,-2.6952,-2.693,-2.6898,-2.6924,-2.6917,-2.6886,-2.6952,-2.692,-2.6927,-2.6966,-2.7033,-2.7039,-2.7045,-2.7107,-2.7122,-2.7134,0,0,0,0,0,0,-2.6908,-2.69,-2.688,-2.6937,-2.6944,-2.6939,-2.6971,-2.6946,-2.6962,-2.6955,-2.6927,-2.6928,-2.6978,-2.6977,-2.6941,-2.7033,-2.6987,-2.6995,-2.7031,-2.7045,-2.7056,-2.7055,-2.6885,0,0,0,0,0,-2.6928,-2.6955,-2.6947,-2.6998,-2.7003,-2.6986,-2.6999,-2.6982,-2.6988,-2.699,-2.6986,-2.6993,-2.7015,-2.703,-2.705,-2.7112,-2.7111,-2.7143,-2.7154,-2.7163,-2.717,-2.7203,-2.7217,-2.7069,-2.7069,-2.7069,0,0,-2.697,-2.697,-2.6988,-2.701,-2.7014,-2.7042,-2.6989,-2.7021,-2.7042,-2.6995,-2.7038,-2.7035,-2.7041,-2.7095,-2.7119,-2.7096,-2.7211,-2.7171,-2.7178,-2.718,-2.7211,-2.7225,-2.7237,-2.7073,-2.7073,-2.7072,0,0,-2.7062,-2.7064,-2.7107,-2.7112,-2.7118,-2.7107,-2.7118,-2.7117,-2.7113,-2.7156,-2.7122,-2.7146,-2.7185,-2.719,-2.7198,-2.7294,-2.7266,-2.7301,-2.7359,-2.7391,-2.7403,-2.7413,-2.7447,-2.7459,-2.7309,-2.7309,-2.7309,0,-2.7113,-2.7155,-2.7132,-2.7167,-2.7177,-2.7138,-2.7181,-2.7187,-2.7199,-2.7207,-2.7181,-2.723,-2.7231,-2.7286,-2.731,-2.7317,-2.7328,-2.73,-2.7403,-2.7413,-2.7422,-2.7454,-2.7467,-2.7313,-2.7312,-2.7312,-2.7312,0,-2.7218,-2.7247,-2.7281,-2.7295,-2.731,-2.7348,-2.7331,-2.7349,-2.7331,-2.7323,-2.7367,-2.7367,-2.7387,-2.7399,-2.7381,-2.7452,-2.7437,-2.7408,-2.7361,-2.7441,-2.747,-2.7482,-2.7319,-2.7317,-2.7316,-2.7315,0,0,-2.7347,-2.7349,-2.7361,-2.7367,-2.7372,-2.7394,-2.7432,-2.7451,-2.7467,-2.7478,-2.7508,-2.7543,-2.7516,-2.7525,-2.7508,-2.7537,-2.7612,-2.7503,-2.7503,-2.7523,-2.769,-2.7711,-2.7725,-2.7594,-2.7597,-2.7598,-2.7689,0,-2.7436,-2.7499,-2.7481,-2.7545,-2.7572,-2.7535,-2.7568,-2.7574,-2.7569,-2.759,-2.7584,-2.7609,-2.7571,-2.7577,-2.7604,-2.7597,-2.7645,-2.7591,-2.7622,-2.7623,-2.762,-2.7741,-2.7763,-2.7849,-2.77,-2.7702,-2.7704,0,-2.7547,-2.7563,-2.763,-2.7631,-2.7642,-2.7671,-2.7688,-2.771,-2.7717,-2.7711,-2.7722,-2.7699,-2.7736,-2.769,-2.774,-2.7704,-2.7716,-2.7715,-2.7717,-2.7718,-2.7667,-2.7744,-2.7875,-2.7888,-2.7722,-2.772,-2.7719,0,-2.7634,-2.7672,-2.7717,-2.7723,-2.7726,-2.7748,-2.775,-2.7754,-2.7768,-2.7783,-2.7791,-2.781,-2.782,-2.7835,-2.7819,-2.7787,-2.7871,-2.7824,-2.7866,-2.7867,-2.7884,-2.7883,-2.8018,-2.7894,-2.7894,-2.7894,-2.7894,0,-2.7735,-2.7777,-2.7756,-2.7784,-2.783,-2.7809,-2.7855,-2.7853,-2.7858,-2.7884,-2.7854,-2.788,-2.7857,-2.788,-2.7867,-2.7911,-2.7916,-2.7911,-2.7907,-2.7913,-2.7914,-2.7919,-2.7913,-2.7897,-2.7897,-2.7896,-2.7895,0,-2.7838,-2.7826,-2.7873,-2.7872,-2.7873,-2.7908,-2.7907,-2.7932,-2.7925,-2.7959,-2.7966,-2.7954,-2.798,-2.7965,-2.7992,-2.7984,-2.804,-2.8028,-2.8037,-2.8034,-2.8077,-2.8073,-2.8219,-2.8237,-2.8103,-2.8104,-2.8105,0,-2.7903,-2.7934,-2.7938,-2.7954,-2.7958,-2.7984,-2.7998,-2.7978,-2.7994,-2.8005,-2.8029,-2.8053,-2.8071,-2.8114,-2.8108,-2.8129,-2.8117,-2.8167,-2.8119,-2.8125,-2.8116,-2.8114,-2.8117,-2.8176,-2.8177,-2.8179,-2.818,0,-2.8018,-2.8011,-2.8032,-2.8052,-2.8069,-2.8084,-2.8095,-2.811,-2.8091,-2.811,-2.8137,-2.8151,-2.8179,-2.8203,-2.8221,-2.8222,-2.8198,-2.8195,-2.8206,-2.8212,-2.8215,-2.8213,-2.8062,-2.8191,-2.819,-2.8189,-2.8189,-2.8188,-2.8103,-2.813,-2.8137,-2.8162,-2.8169,-2.8181,-2.8205,-2.8201,-2.8223,-2.8245,-2.8232,-2.8264,-2.8271,-2.8292,-2.8298,-2.8322,-2.8302,-2.8317,-2.8321,-2.8325,-2.8331,-2.8213,-2.8325,-2.8325,-2.8324,-2.8324,-2.8324,0,-2.8216,-2.8219,-2.8243,-2.8261,-2.828,-2.8257,-2.8269,-2.8287,-2.8315,-2.8324,-2.8343,-2.8374,-2.8398,-2.8394,-2.8415,-2.8436,-2.8425,-2.8442,-2.8439,-2.844,-2.8348,-2.8336,-2.845,-2.845,-2.845,-2.845,-2.845,-2.845,-2.8277,-2.8321,-2.8315,-2.8363,-2.8365,-2.8396,-2.8405,-2.8417,-2.8424,-2.846,-2.848,-2.8477,-2.8481,-2.8503,-2.8524,-2.8522,-2.8531,-2.8552,-2.8546,-2.8459,-2.8447,-2.8435,-2.8423,-2.8554,-2.8554,-2.8636,-2.8637,-2.8637]},{"header":{"parameterUnit":"m.s-1","parameterCategory":1,"la1":30.2991,"la2":30.254,"lo1":-89.0895,"lo2":-89.0444,"dy":0.0017,"dx":0.0017,"nx":28,"ny":28,"refTime":"2024-03-06T03:00:00:Z","depth":0,"parameterNumber":3,"parameterNumberName":"V-component_of_WINDS"},"data":[0,0,0,0,0,0,0,0,0,0,0,0,0,0,0,0,0,0,0,0,0,0,0,0,0,0,0,0,0,0,0,0,0,0,0,0,0,0,0,0,0,0,0,0,0,0,0,0,0,0,0,0,0,0,0,0,0,0,0.9625,0.9625,0,0.9716,0.9717,0.9718,0.9784,0.9784,0.9785,0.9786,0.9878,0.988,0.9881,0,0,0,0,0,0,0,0,0,0,0,0,0,0.9508,0.951,0.9624,0.9626,0.9627,0.9716,0.9717,0.9718,0.9784,0.9784,0.9785,0.9786,0.9877,0.9879,0.9882,0,0,0,0,0,0,0,0,0,0,0,0,0,0.9575,0.9511,0.9624,0.967,0.9675,0.9715,0.9717,0.9718,0.9784,0.9784,0.9785,0.9786,0.9876,0.9879,0.9882,0.9883,0,0,0.9891,0.9892,0,0,0,0,0,0,0,0,0.9571,0.9579,0.9662,0.9667,0.9673,0.9739,0.971,0.9774,0.9783,0.9742,0.9786,0.9787,0.9831,0.9838,0.9853,0.9887,0.9891,0.9891,0.9893,0.9894,0.9895,0,0,0,0,0,0,0,0.9566,0.9576,0.9661,0.9663,0.967,0.9687,0.9697,0.9722,0.9781,0.9746,0.9751,0.9761,0.9834,0.985,0.9855,0.9893,0.9891,0.9894,0.9895,0.9897,0.9936,0.9936,0,0,0,0,0,0,0.9555,0.9571,0.9658,0.9663,0.9623,0.9688,0.97,0.9717,0.9781,0.9791,0.976,0.9764,0.9844,0.9852,0.9859,0.9867,0.9894,0.9897,0.9898,0.9937,0.9936,0.9935,0,0,0,0,0,0,0.9552,0.9562,0.9654,0.9619,0.9632,0.9689,0.9708,0.9718,0.9735,0.9791,0.9802,0.9766,0.9845,0.9855,0.9878,0.9871,0.9898,0.9901,0.9938,0.9937,0.9936,0.9881,0,0,0,0,0,0,0.9548,0.956,0.9561,0.9618,0.9633,0.967,0.9708,0.972,0.9739,0.9745,0.9799,0.9809,0.9847,0.9873,0.988,0.9875,0.9903,0.9939,0.9937,0.9936,0.9883,0.9878,0.9873,0,0,0,0,0,0.9544,0.9541,0.956,0.957,0.9635,0.967,0.9679,0.9722,0.9739,0.974,0.9777,0.9808,0.987,0.9875,0.9884,0.9879,0.9939,0.9938,0.9936,0.9886,0.9879,0.9873,0,0,0,0,0,0,0.948,0.9549,0.9572,0.9587,0.9622,0.9681,0.9684,0.9713,0.9744,0.9748,0.98,0.9812,0.983,0.9857,0.986,0.9885,0.9909,0.9909,0.9867,0.9861,0.9856,0.985,0.9905,0,0,0,0,0,0.9467,0.949,0.9549,0.9557,0.9574,0.9626,0.9642,0.9673,0.9711,0.9726,0.9765,0.9801,0.983,0.9847,0.9876,0.9888,0.9902,0.9889,0.9884,0.988,0.9879,0.9891,0.9886,0.993,0.993,0.993,0,0,0.9442,0.9483,0.9493,0.9545,0.9576,0.9599,0.9638,0.9659,0.9677,0.973,0.9754,0.9784,0.9828,0.9846,0.9856,0.9869,0.9871,0.9878,0.9874,0.9876,0.9889,0.9884,0.9881,0.9929,0.993,0.993,0,0,0.9408,0.944,0.9452,0.9482,0.9529,0.9564,0.9567,0.9622,0.9644,0.967,0.9711,0.9733,0.9779,0.981,0.9832,0.9812,0.9842,0.982,0.9793,0.9804,0.98,0.9797,0.9792,0.979,0.9819,0.9819,0.9819,0,0.937,0.9406,0.9453,0.9474,0.9496,0.9546,0.9559,0.9587,0.964,0.9655,0.9669,0.9731,0.9764,0.9791,0.9786,0.9801,0.9807,0.9814,0.9797,0.9795,0.9793,0.9788,0.9786,0.9816,0.9817,0.9817,0.9817,0,0.9359,0.9383,0.9387,0.9439,0.9461,0.9477,0.9528,0.9546,0.9575,0.9609,0.9636,0.9677,0.9717,0.9726,0.9754,0.9757,0.9765,0.9787,0.9812,0.9785,0.9782,0.978,0.9812,0.9813,0.9814,0.9815,0,0,0.9285,0.9365,0.9366,0.9392,0.9448,0.9468,0.9487,0.9527,0.9542,0.9578,0.9596,0.9636,0.9658,0.9683,0.9715,0.9724,0.9708,0.9746,0.9748,0.9739,0.9718,0.9701,0.9698,0.9728,0.9728,0.9728,0.9715,0,0.9261,0.9299,0.9343,0.9366,0.939,0.944,0.9457,0.9494,0.9527,0.9552,0.9589,0.9617,0.9643,0.9658,0.9669,0.9708,0.9705,0.9709,0.9747,0.9748,0.9735,0.9696,0.9679,0.9664,0.9713,0.9713,0.9713,0,0.9237,0.9272,0.9297,0.9355,0.9367,0.9381,0.9423,0.9446,0.949,0.9514,0.9542,0.9578,0.9602,0.9623,0.9658,0.966,0.9679,0.97,0.9701,0.9706,0.9729,0.9702,0.966,0.9658,0.9711,0.9711,0.9712,0,0.9183,0.9237,0.926,0.928,0.9346,0.9356,0.9384,0.9429,0.9451,0.9487,0.9502,0.954,0.9561,0.959,0.9635,0.9646,0.9666,0.9691,0.9687,0.9686,0.9689,0.9689,0.965,0.9699,0.9699,0.9699,0.9699,0,0.9152,0.9166,0.9237,0.9251,0.9269,0.932,0.9337,0.9369,0.9409,0.9431,0.9476,0.9496,0.9554,0.9581,0.9616,0.9641,0.965,0.967,0.968,0.9667,0.9665,0.968,0.9683,0.9699,0.9699,0.9699,0.9699,0,0.9095,0.9143,0.9171,0.9233,0.9249,0.926,0.9313,0.9329,0.9365,0.9393,0.9402,0.9459,0.9493,0.9541,0.959,0.9614,0.9634,0.9649,0.962,0.9626,0.962,0.962,0.9591,0.9591,0.9638,0.9637,0.9637,0,0.9072,0.9085,0.9149,0.9167,0.9194,0.9223,0.9246,0.9298,0.932,0.9373,0.9383,0.9421,0.9454,0.9507,0.9553,0.9591,0.9608,0.9595,0.9614,0.9601,0.961,0.9609,0.9611,0.959,0.9589,0.9589,0.9588,0,0.9028,0.9052,0.9084,0.9124,0.9151,0.9186,0.9222,0.9235,0.9294,0.9318,0.9354,0.938,0.9431,0.9469,0.9514,0.9543,0.9576,0.9582,0.9584,0.9571,0.9555,0.9565,0.9609,0.9583,0.9583,0.9584,0.9584,0.9584,0.8989,0.9003,0.9051,0.9086,0.9119,0.9153,0.9172,0.9211,0.9243,0.9289,0.9318,0.9353,0.9399,0.9463,0.9491,0.9521,0.9534,0.9535,0.9536,0.9536,0.9532,0.9549,0.9529,0.9529,0.9529,0.9529,0.9529,0,0.8948,0.8982,0.9014,0.9064,0.9092,0.9121,0.9164,0.9185,0.9216,0.9257,0.9289,0.9332,0.937,0.9419,0.9461,0.9475,0.9491,0.9484,0.9484,0.9491,0.9517,0.9513,0.947,0.947,0.947,0.947,0.947,0.947,0.893,0.8957,0.8987,0.9031,0.9065,0.9101,0.9123,0.9155,0.9188,0.9234,0.9266,0.9298,0.9343,0.9388,0.9425,0.9439,0.9452,0.9441,0.9459,0.9483,0.9489,0.9494,0.949,0.9443,0.9443,0.9431,0.943,0.943]}]]